Location: Ch�tillon
(48.8024°N, 2.2935°E)
Time: 19:40:53
(UTC+00:00)

Cosmos 1697 Rocket - Pass Details

Date: 25 May 2022
Orbit: 833 x 843 km, 71.0° (Epoch: 30 June)

Event Time Altitude Azimuth Distance (km) Brightness Sun altitude
Rises 22:42:58 0° 265° (W) 3,399 6.0 -18.6°
Reaches altitude 10° 22:46:22 10° 285° (WNW) 2,467 5.5 -18.8°
Maximum altitude 22:49:55 17° 325° (NW) 2,035 5.6 -18.9°
Drops below altitude 10° 22:53:28 10° 4° (N) 2,472 6.2 -19.1°
Sets 22:56:54 0° 25° (NNE) 3,408 6.7 -19.2°
